{"data":{"norad_id":68351,"intl_designator":"2026-060B","name":"CENTISPACE-2 S2","alt_names":[],"object_type":"PAYLOAD","status":"ACTIVE","operator":null,"country":"PRC","launch_date":"2026-03-22","launch_site_code":"YSLA","launch_vehicle":null,"mission":null,"orbit_class":"UNKNOWN","rcs_meters":null,"size_class":null,"mass_kg":null,"dimensions":null,"purposes":[],"wikipedia_slug":null,"has_3d_model":false,"image_url":null,"decayed_at":null,"tle_current":{"epoch":"2026-05-25T06:09:29.327616Z","epoch_age_seconds":49040,"freshness":"FRESH","line1":"1 68351U 26060B   26145.25658944  .00000289  00000+0  77082-4 0  9994","line2":"2 68351  54.9795 129.7242 0009738  55.1745 305.0168 14.72493622  9388","mean_motion":14.72493622,"eccentricity":0.0009738,"inclination_deg":54.9795,"raan_deg":129.7242,"arg_perigee_deg":55.1745,"mean_anomaly_deg":305.0168,"bstar":7.7082e-5,"rev_number":938,"period_min":97.793292852714,"perigee_km":646.27168311924,"apogee_km":659.9657567594,"semimajor_km":7031.2557199393,"source":"CELESTRAK","updated_at":"2026-05-25T13:38:07.760450Z"}}}